EN

Hourly Weather Abbotsford

Today, 3 December, Thursday

Time Temperature Precipitation Wind Pressure Humidity
00:00 +6°C° 0 mm 1 mps 760 mmHg 72%
01:00 +5°C° 0 mm 1 mps 761 mmHg 72%
02:00 +5°C° 0 mm 1 mps 761 mmHg 72%
03:00 +5°C° 0 mm 1 mps 760 mmHg 71%
04:00 +5°C° 0 mm 1 mps 760 mmHg 71%
05:00 +5°C° 0 mm 1 mps 761 mmHg 71%
06:00 +5°C° 0 mm 1 mps 761 mmHg 72%
07:00 +5°C° 0 mm 1 mps 761 mmHg 72%
08:00 +6°C° 0 mm 1 mps 761 mmHg 71%
09:00 +7°C° 0 mm 1 mps 762 mmHg 69%
10:00 +7°C° 0 mm 0 mps 762 mmHg 67%
11:00 +8°C° 0 mm 0 mps 762 mmHg 67%
12:00 +8°C° 0 mm 0 mps 762 mmHg 66%
13:00 +9°C° 0 mm 0 mps 762 mmHg 66%
14:00 +8°C° 0 mm 0 mps 762 mmHg 68%
15:00 +8°C° 0 mm 0 mps 762 mmHg 71%
16:00 +7°C° 0 mm 0 mps 763 mmHg 73%
17:00 +7°C° 0 mm 0 mps 763 mmHg 74%
18:00 +6°C° 0 mm 0 mps 764 mmHg 75%
19:00 +6°C° 0 mm 0 mps 764 mmHg 76%
20:00 +6°C° 0 mm 1 mps 764 mmHg 75%
21:00 +6°C° 0 mm 1 mps 765 mmHg 75%
22:00 +6°C° 0 mm 1 mps 765 mmHg 75%
23:00 +6°C° 0 mm 1 mps 765 mmHg 75%

Tomorrow, 4 December, Friday

Time Temperature Precipitation Wind Pressure Humidity
00:00 +5°C° 0 mm 1 mps 765 mmHg 74%
01:00 +5°C° 0 mm 1 mps 765 mmHg 74%
02:00 +5°C° 0 mm 1 mps 765 mmHg 74%
03:00 +5°C° 0 mm 1 mps 765 mmHg 74%
04:00 +5°C° 0 mm 1 mps 765 mmHg 74%
05:00 +5°C° 0 mm 1 mps 765 mmHg 75%
06:00 +5°C° 0 mm 1 mps 765 mmHg 76%
07:00 +5°C° 0 mm 1 mps 765 mmHg 77%
08:00 +6°C° 0 mm 1 mps 765 mmHg 75%
09:00 +7°C° 0 mm 1 mps 764 mmHg 74%
10:00 +8°C° 0 mm 1 mps 764 mmHg 72%
11:00 +9°C° 0 mm 1 mps 764 mmHg 69%
12:00 +9°C° 0 mm 0 mps 764 mmHg 67%
13:00 +10°C° 0 mm 0 mps 763 mmHg 65%
14:00 +9°C° 0 mm 0 mps 763 mmHg 71%
15:00 +9°C° 0 mm 1 mps 763 mmHg 78%
16:00 +8°C° 0 mm 1 mps 762 mmHg 84%
17:00 +7°C° 0 mm 1 mps 762 mmHg 84%
18:00 +7°C° 0 mm 1 mps 762 mmHg 83%
19:00 +7°C° 0 mm 1 mps 762 mmHg 83%
20:00 +7°C° 0 mm 1 mps 762 mmHg 81%
21:00 +7°C° 0 mm 1 mps 762 mmHg 80%
22:00 +7°C° 0 mm 1 mps 762 mmHg 78%
23:00 +6°C° 0 mm 1 mps 761 mmHg 78%

Day after tomorrow, 5 December, Saturday

Time Temperature Precipitation Wind Pressure Humidity
00:00 +6°C° 0 mm 1 mps 761 mmHg 77%
01:00 +6°C° 0 mm 1 mps 760 mmHg 77%
02:00 +6°C° 0 mm 1 mps 760 mmHg 75%
03:00 +6°C° 0 mm 1 mps 759 mmHg 74%
04:00 +5°C° 0 mm 2 mps 759 mmHg 72%
05:00 +6°C° 0 mm 1 mps 758 mmHg 73%
06:00 +6°C° 0 mm 1 mps 758 mmHg 73%
07:00 +6°C° 0 mm 1 mps 758 mmHg 74%
08:00 +7°C° 0 mm 1 mps 757 mmHg 71%
09:00 +8°C° 0 mm 1 mps 757 mmHg 69%
10:00 +9°C° 0 mm 1 mps 757 mmHg 67%
11:00 +10°C° 0 mm 1 mps 756 mmHg 66%
12:00 +11°C° 0 mm 1 mps 756 mmHg 66%
13:00 +10°C° 0 mm 0 mps 756 mmHg 65%
14:00 +9°C° 0 mm 0 mps 756 mmHg 71%
15:00 +8°C° 0 mm 0 mps 756 mmHg 76%
16:00 +9°C° 0 mm 1 mps 755 mmHg 81%
17:00 +8°C° 1.1 mm 1 mps 756 mmHg 85%
18:00 +8°C° 1.1 mm 1 mps 756 mmHg 89%
19:00 +8°C° 1.1 mm 1 mps 756 mmHg 93%
20:00 +8°C° 1 mm 1 mps 757 mmHg 94%
21:00 +9°C° 1 mm 1 mps 757 mmHg 94%
22:00 +9°C° 1 mm 1 mps 757 mmHg 95%
23:00 +9°C° 1.2 mm 1 mps 758 mmHg 96%

6 December, Sunday

Time Temperature Precipitation Wind Pressure Humidity
00:00 +8°C° 1.2 mm 0 mps 758 mmHg 96%
01:00 +8°C° 1.2 mm 0 mps 759 mmHg 97%
02:00 +7°C° 0.2 mm 0 mps 759 mmHg 97%
03:00 +7°C° 0.2 mm 0 mps 759 mmHg 97%
04:00 +7°C° 0.2 mm 0 mps 760 mmHg 97%
05:00 +8°C° 0.4 mm 1 mps 760 mmHg 97%
06:00 +8°C° 0.4 mm 1 mps 761 mmHg 97%
07:00 +8°C° 0.4 mm 1 mps 762 mmHg 98%
08:00 +9°C° 0 mm 1 mps 762 mmHg 96%
09:00 +9°C° 0 mm 1 mps 763 mmHg 94%
10:00 +8°C° 0 mm 0 mps 763 mmHg 92%
11:00 +10°C° 0 mm 1 mps 763 mmHg 89%
12:00 +10°C° 0 mm 1 mps 763 mmHg 85%
13:00 +11°C° 0 mm 1 mps 763 mmHg 82%
14:00 +10°C° 0 mm 1 mps 763 mmHg 86%
15:00 +9°C° 0 mm 1 mps 764 mmHg 90%
16:00 +7°C° 0 mm 0 mps 764 mmHg 94%
17:00 +7°C° 0 mm 0 mps 764 mmHg 94%
18:00 +7°C° 0 mm 0 mps 764 mmHg 93%
19:00 +7°C° 0 mm 1 mps 764 mmHg 93%
20:00 +7°C° 0 mm 1 mps 764 mmHg 93%
21:00 +6°C° 0 mm 1 mps 764 mmHg 92%
22:00 +6°C° 0 mm 1 mps 763 mmHg 92%
23:00 +6°C° 0 mm 1 mps 763 mmHg 91%

7 December, Monday

Time Temperature Precipitation Wind Pressure Humidity
00:00 +6°C° 0 mm 1 mps 763 mmHg 90%
01:00 +6°C° 0 mm 1 mps 763 mmHg 89%
02:00 +6°C° 0 mm 1 mps 763 mmHg 88%
03:00 +7°C° 0 mm 1 mps 762 mmHg 87%
04:00 +7°C° 0 mm 1 mps 762 mmHg 86%
05:00 +7°C° 0 mm 1 mps 761 mmHg 85%
06:00 +7°C° 0 mm 1 mps 761 mmHg 85%
07:00 +7°C° 0 mm 1 mps 761 mmHg 84%
08:00 +7°C° 0 mm 1 mps 761 mmHg 84%
09:00 +8°C° 0 mm 1 mps 761 mmHg 83%
10:00 +8°C° 0 mm 1 mps 761 mmHg 83%
11:00 +8°C° 0.2 mm 1 mps 761 mmHg 84%
12:00 +8°C° 0.2 mm 1 mps 761 mmHg 85%
13:00 +6°C° 0.2 mm 2 mps 760 mmHg 85%
14:00 +6°C° 0.9 mm 2 mps 760 mmHg 88%
15:00 +6°C° 0.9 mm 2 mps 760 mmHg 90%
16:00 +7°C° 0.9 mm 1 mps 760 mmHg 92%
17:00 +7°C° 1.1 mm 1 mps 759 mmHg 93%
18:00 +7°C° 1.1 mm 1 mps 759 mmHg 94%
19:00 +7°C° 1.1 mm 1 mps 759 mmHg 94%
20:00 +7°C° 1 mm 1 mps 759 mmHg 95%
21:00 +8°C° 1 mm 1 mps 759 mmHg 95%
22:00 +8°C° 1 mm 1 mps 758 mmHg 96%
23:00 +8°C° 2 mm 1 mps 758 mmHg 96%

8 December, Tuesday

Time Temperature Precipitation Wind Pressure Humidity
00:00 +8°C° 2 mm 1 mps 757 mmHg 97%
01:00 +8°C° 2 mm 1 mps 757 mmHg 97%
02:00 +8°C° 2.9 mm 1 mps 757 mmHg 98%
03:00 +7°C° 2.9 mm 0 mps 757 mmHg 98%
04:00 +7°C° 2.9 mm 0 mps 756 mmHg 98%
05:00 +7°C° 1.9 mm 0 mps 756 mmHg 98%
06:00 +8°C° 1.9 mm 0 mps 757 mmHg 98%
07:00 +8°C° 1.9 mm 0 mps 757 mmHg 98%
08:00 +8°C° 0.3 mm 0 mps 757 mmHg 98%
09:00 +8°C° 0.3 mm 0 mps 757 mmHg 98%
10:00 +8°C° 0.3 mm 0 mps 757 mmHg 97%
11:00 +8°C° 0.2 mm 0 mps 756 mmHg 97%
12:00 +9°C° 0.2 mm 0 mps 756 mmHg 96%
13:00 +10°C° 0.2 mm 1 mps 756 mmHg 96%
14:00 +10°C° 1.9 mm 1 mps 755 mmHg 96%
15:00 +10°C° 1.9 mm 1 mps 755 mmHg 97%
16:00 +10°C° 1.9 mm 1 mps 754 mmHg 98%
17:00 +9°C° 2.1 mm 2 mps 754 mmHg 96%
18:00 +9°C° 2.1 mm 2 mps 753 mmHg 95%
19:00 +9°C° 2.1 mm 2 mps 753 mmHg 94%
20:00 +8°C° 1.2 mm 2 mps 753 mmHg 94%
21:00 +8°C° 1.2 mm 2 mps 753 mmHg 94%
22:00 +8°C° 1.2 mm 2 mps 752 mmHg 94%
23:00 +8°C° 0.6 mm 2 mps 752 mmHg 94%
Show more